Location: Presov
(49.0000°N, 21.2500°E)
Time: 00:13:40
(UTC+02:00)

Transit 2A Rocket - Pass Details

Date: 18 April 2021
Orbit: 594 x 908 km, 66.7° (Epoch: 05 May)

Event Time Altitude Azimuth Distance (km) Brightness Sun altitude
Rises 01:16:06 0° 321° (NW) 2,872 8.5 -29.5°
Reaches altitude 10° 01:18:20 10° 316° (NW) 1,987 7.5 -29.4°
Enters shadow 01:19:53 21° 309° (NW) 1,408 6.6 -29.3°
Maximum altitude 01:22:40 53° 240° (WSW) 790 - -29.2°
Drops below altitude 10° 01:27:18 10° 164° (SSE) 2,117 - -29.0°
Sets 01:29:45 0° 160° (SSE) 3,080 - -28.9°
